Probability
1 1 1 0 0 0 0 0 0 0 0 0 0 1 2 2 2 1 0 0 0 0 0 0 0 0 0 0 0 0 0 0 0 0 0 0 0 0 0 0 0 0 0
4 3 2 2 2 2 1 0 0 0 0 0 0 0 1 1 1 0 0 0 0 0 0 0 0 0 0 0 0 0 0 0 0 0 0 0 0 0 0 0 0 0 0
13 9 5 5 6 7 5 2 0 0 0 0 0 0 0 0 0 0 0 0 0 0 0 0 0 0 0 0 0 0 0 0 0 0 0 0 0 0 0 0 0 0 0
27 18 10 9 10 11 9 4 1 0 0 0 0 0 0 0 0 0 0 0 0 0 0 0 0 0 0 0 0 0 0 0 0 0 0 0 0 0 0 0 0 0 0
35 25 16 13 12 12 11 6 2 0 0 0 0 0 0 0 0 0 0 0 0 0 0 0 0 0 0 0 0 0 0 0 0 0 0 0 0 0 0 0 0 0 0
37 28 20 18 15 12 11 8 3 1 0 0 0 0 0 0 0 0 0 0 0 0 0 0 0 0 0 0 0 0 0 0 0 0 0 0 0 0 0 0 0 0 0
39 30 22 21 19 16 13 9 5 2 1 0 0 0 0 0 0 0 0 0 0 0 0 0 0 0 0 0 0 0 0 0 0 0 0 0 0 0 0 0 0 0 0
43 33 22 19 20 19 14 11 8 3 1 0 0 0 0 0 0 0 0 0 0 0 0 0 0 0 0 0 0 0 0 0 0 0 0 0 0 0 0 0 0 0 0
46 36 24 18 18 16 12 11 8 4 1 0 0 0 0 0 0 0 0 0 0 0 0 0 0 0 0 0 0 0 0 0 0 0 0 0 1 1 0 0 0 0 0
40 36 27 21 18 14 11 9 8 5 1 0 0 1 1 0 0 0 0 0 0 0 0 0 0 0 0 0 0 0 0 0 0 0 0 1 2 2 0 0 0 0 0
30 29 28 26 24 19 13 10 9 8 3 1 1 2 2 1 0 0 0 0 0 0 0 0 0 0 0 0 0 0 0 0 0 0 0 2 3 2 1 0 0 0 0
24 23 23 25 25 22 19 15 14 11 6 3 3 3 2 1 0 0 0 0 0 0 0 0 0 0 0 0 0 0 0 0 0 0 1 4 6 5 3 1 0 0 0
22 20 18 19 19 19 21 19 15 11 6 4 3 2 1 0 0 0 0 0 0 0 0 0 0 0 0 0 0 0 0 0 0 0 3 7 10 11 9 6 3 2 1
20 17 15 13 12 14 16 15 10 6 4 3 2 1 0 0 0 0 0 0 0 0 0 0 0 0 0 0 0 0 0 0 0 1 6 12 17 18 18 14 9 6 4
25 22 17 12 9 10 10 7 3 2 1 1 1 0 0 0 0 0 0 0 0 0 0 0 0 0 0 0 0 0 0 0 0 2 8 17 24 26 24 20 15 10 7
37 31 21 11 7 6 5 3 1 0 0 0 0 0 0 0 0 0 0 0 0 0 0 0 0 0 0 0 0 0 0 0 1 4 10 18 26 30 29 25 21 15 11
47 41 27 14 7 4 2 1 1 0 0 0 0 0 0 0 0 0 0 0 0 0 0 0 0 0 0 0 0 0 0 0 1 5 11 16 20 25 31 32 30 27 23
56 53 42 29 18 11 7 4 3 2 1 1 1 0 0 0 0 0 0 0 1 1 0 0 0 0 0 0 0 0 0 0 1 3 7 10 11 14 22 30 36 37 36
64 65 62 53 42 33 24 16 11 8 6 6 4 3 3 3 2 2 2 2 3 3 2 1 1 0 0 0 0 0 0 0 0 1 2 4 4 5 8 18 29 36 37
70 73 75 71 65 57 48 39 30 22 17 15 12 10 9 10 12 11 9 7 7 8 5 3 1 0 0 0 0 1 0 0 0 0 0 0 1 1 1 7 16 22 27
70 74 76 77 74 70 64 58 51 40 31 27 22 17 14 18 24 25 20 15 14 12 8 3 1 1 1 1 0 0 0 0 0 0 0 0 0 0 0 2 4 8 11
60 63 66 68 70 69 67 65 60 50 39 32 25 18 17 22 28 30 27 23 20 15 10 6 4 4 3 3 2 0 0 0 0 0 0 0 0 1 0 0 0 1 2
44 47 49 52 57 60 61 62 59 49 38 30 24 19 18 22 25 25 24 24 21 16 12 10 9 7 6 6 4 1 0 0 0 0 0 0 0 0 0 0 0 0 0
32 33 35 39 44 47 50 54 53 44 33 26 24 20 17 18 19 17 16 17 16 14 12 11 9 8 8 8 6 3 1 0 0 0 0 0 0 0 0 0 0 0 0
22 22 25 30 33 34 37 40 41 36 28 24 22 19 15 12 12 11 10 10 11 10 9 8 7 6 6 6 5 4 2 1 0 0 0 0 0 0 0 0 0 0 0
17 17 20 24 26 28 29 30 31 29 25 22 19 17 13 9 8 8 8 8 8 7 6 5 5 4 4 4 4 4 3 1 0 0 0 0 0 0 0 0 0 0 0
Wind_Speed
10 12 17 18 18 18 19 19 19 18 18 18 18 18 18 18 17 17 16 16 16 15 15 15 15 15 15 15 16 16 16 16 17 17 16 15 15 16 16 16 15 11 16
16 15 19 19 19 19 19 19 19 18 18 17 17 17 17 17 16 16 16 15 15 15 15 14 14 14 14 14 14 14 15 15 15 15 15 13 14 15 15 15 14 10 15
18 16 18 19 20 20 20 20 19 18 18 17 17 17 16 16 16 15 15 14 14 14 14 13 13 13 13 13 13 13 13 13 13 14 13 7 9 15 15 15 14 14 13
19 15 16 20 20 21 21 20 19 18 18 17 16 16 16 15 15 14 14 14 13 13 12 12 12 11 11 11 11 10 10 9 9 10 6 4 7 14 15 14 14 13 13
17 15 17 22 20 21 21 21 19 19 18 17 16 16 15 15 14 13 13 13 12 12 11 11 10 10 9 9 9 8 7 7 7 7 5 5 6 12 14 14 13 12 12
16 14 18 22 21 20 21 21 20 19 18 17 16 16 15 14 13 13 12 12 12 11 10 10 9 8 7 7 6 6 6 5 5 5 5 5 5 11 13 13 13 12 11
15 12 16 20 20 20 21 20 20 19 18 17 16 15 14 13 13 12 12 11 11 10 9 9 7 6 5 5 4 4 4 4 4 5 5 5 6 12 13 13 12 12 11
16 14 14 20 21 20 21 20 19 18 17 17 16 15 14 13 12 12 11 11 10 9 9 8 6 5 3 3 2 2 3 4 5 6 5 5 9 12 13 13 12 12 11
15 14 12 13 16 19 20 19 19 18 17 17 16 15 15 14 13 12 11 10 10 9 8 7 6 5 4 2 1 0 2 4 4 3 7 5 10 13 13 13 12 12 11
13 13 13 11 10 11 13 19 19 18 17 17 17 16 16 15 13 13 10 10 10 9 8 8 7 6 5 4 4 2 1 3 4 4 4 6 12 14 14 13 13 12 12
13 12 12 11 10 10 10 14 16 17 16 16 14 16 14 7 7 8 10 11 11 10 9 8 8 7 6 6 6 5 2 2 4 4 4 10 14 15 15 14 13 13 12
15 13 11 12 11 11 10 9 7 8 9 8 7 8 6 5 5 7 9 12 12 11 10 10 9 7 6 3 5 5 2 3 3 4 6 14 15 16 16 15 14 14 13
16 15 13 12 12 11 8 8 5 5 6 6 8 8 6 5 4 4 3 5 6 8 5 5 5 3 3 3 3 3 3 3 3 4 7 15 16 17 17 16 16 15 14
15 15 15 13 12 9 8 7 6 6 5 6 7 8 6 4 4 4 4 4 4 3 3 3 3 4 5 5 5 5 5 4 4 4 7 16 16 17 17 17 17 16 15
16 16 16 15 13 11 9 7 8 6 7 7 6 7 7 5 5 5 4 4 4 3 4 4 4 4 5 5 5 5 5 6 7 6 6 15 16 16 17 18 17 17 16
17 17 15 16 14 12 10 8 8 7 7 7 7 8 8 5 5 5 5 5 5 4 4 4 5 4 4 3 3 2 3 4 6 6 5 10 16 16 17 18 18 17 17
16 16 15 16 15 14 13 11 8 8 7 7 7 8 8 6 6 5 5 5 5 5 5 4 3 2 1 1 0 0 2 3 5 6 6 5 7 13 16 16 16 17 17
13 14 16 16 15 14 12 9 7 7 8 7 6 7 8 7 6 5 5 5 4 4 3 3 2 2 1 0 0 0 1 1 3 4 5 5 5 6 10 15 15 15 17
11 12 15 14 15 14 11 8 7 7 7 6 6 6 7 7 7 5 4 4 4 3 2 2 1 1 1 1 1 1 1 1 2 3 4 5 5 5 5 10 14 15 16
8 8 11 12 12 12 9 6 4 5 5 5 5 6 7 6 6 5 3 3 3 2 2 1 1 1 1 1 1 1 1 0 1 2 3 3 4 5 5 6 7 9 14
6 5 6 10 10 9 7 6 5 4 4 3 3 4 6 5 5 4 3 2 2 2 2 2 1 1 1 1 1 1 1 0 0 1 2 2 3 4 4 5 4 3 5
8 5 3 4 7 7 6 6 4 4 3 3 3 3 4 3 3 3 3 2 2 1 1 1 1 1 0 1 2 1 1 1 1 0 0 1 2 1 2 4 3 3 2
10 7 4 3 4 4 3 3 4 3 3 2 3 3 4 5 5 4 5 3 2 2 1 1 1 3 2 2 2 3 2 3 1 0 0 0 0 0 0 0 2 3 3
9 9 7 6 6 5 5 5 5 4 3 3 3 4 6 7 7 6 5 5 4 3 2 1 2 0 1 2 1 1 2 2 2 1 0 1 1 1 0 1 1 3 4
10 10 8 7 8 7 6 6 6 5 4 5 6 7 7 7 8 8 7 7 6 5 5 5 4 3 1 1 0 0 0 0 1 2 1 0 1 1 1 1 2 2 4
12 11 9 9 9 9 9 8 8 8 7 7 7 7 6 6 7 9 9 8 7 6 6 6 6 7 5 5 4 3 2 1 0 1 1 1 1 1 2 3 2 2 3
Wind_Direction
155 160 157 148 139 131 125 120 115 112 108 104 102 100 100 100 101 101 102 103 103 103 103 102 100 100 100 101 103 104 107 109 111 112 113 114 116 115 111 108 106 105 107
153 157 156 150 142 135 130 125 121 118 113 109 107 105 104 103 103 104 104 105 106 106 105 104 103 103 103 103 104 106 109 110 110 109 108 109 113 115 113 110 109 112 111
148 154 155 151 145 140 135 130 127 124 120 116 113 111 109 109 109 109 109 108 108 107 107 105 104 103 103 103 104 106 109 111 109 105 102 95 106 112 114 113 112 112 112
147 152 154 152 148 143 139 136 133 130 127 123 120 118 116 115 114 113 113 112 112 111 110 108 106 104 102 102 102 102 103 104 105 111 108 104 107 115 116 117 117 116 114
146 151 155 153 149 145 142 140 139 136 133 129 126 124 122 121 119 118 118 118 117 116 114 113 110 107 104 101 97 94 89 85 89 103 112 109 108 121 121 121 120 118 118
146 151 155 154 151 148 146 144 143 141 138 135 132 130 129 127 125 124 124 124 123 122 121 119 116 112 109 103 96 87 76 68 88 113 122 124 122 128 127 126 124 122 120
144 148 154 154 152 150 149 147 147 146 143 140 138 136 135 133 131 131 132 132 132 131 130 128 126 121 116 112 101 83 65 61 107 133 138 135 137 135 133 131 129 128 125
144 147 153 156 154 153 152 151 150 149 147 145 143 142 140 139 139 139 139 141 141 141 141 142 142 140 136 132 116 82 62 64 106 134 142 144 146 141 138 135 134 132 130
145 147 151 157 158 156 154 154 153 152 151 149 147 146 146 147 147 148 149 150 153 154 156 159 165 172 179 192 206 133 72 101 117 137 154 155 154 148 145 142 140 137 135
146 149 153 154 154 154 156 158 157 155 154 153 152 152 153 154 156 158 158 162 166 169 173 177 185 195 206 221 233 239 179 124 143 154 154 169 162 155 152 150 147 145 142
150 153 155 154 153 152 155 161 159 158 157 156 158 159 156 155 157 163 172 176 179 182 187 192 200 210 222 236 242 239 206 157 159 164 168 176 168 163 159 158 156 153 150
159 160 159 158 156 156 160 154 156 158 158 156 159 160 156 159 170 176 188 189 190 193 199 205 213 222 232 245 253 245 196 176 169 175 184 181 175 171 167 165 164 162 160
164 164 163 162 161 162 155 154 157 154 157 159 164 164 163 164 179 186 184 197 199 202 207 216 221 222 227 235 243 224 200 190 194 190 190 186 182 178 175 173 171 170 169
168 169 166 166 165 165 154 160 161 160 166 171 176 175 170 174 186 188 189 193 193 197 203 216 221 224 231 238 238 232 213 199 201 197 197 190 187 184 182 180 178 177 176
174 172 171 169 168 164 157 166 168 170 176 178 181 186 180 179 187 188 192 192 197 199 206 217 224 231 235 239 240 232 217 208 198 190 196 195 191 189 188 187 185 183 182
178 174 173 172 170 165 167 173 174 178 179 181 186 191 189 185 184 185 191 193 199 202 209 214 218 228 234 228 235 221 202 193 186 185 192 195 195 192 193 193 190 189 189
179 173 175 174 170 169 173 178 175 179 178 184 189 192 191 185 183 184 189 194 200 199 200 201 204 206 208 204 249 210 159 174 178 184 187 187 197 200 197 197 194 194 194
177 173 178 177 171 172 174 177 174 178 178 186 188 191 192 188 183 174 178 187 189 181 173 176 182 175 182 162 129 80 132 145 174 180 183 189 192 200 203 201 199 198 198
174 172 177 172 170 172 170 171 172 173 177 183 182 185 190 190 184 175 178 181 173 164 166 180 178 179 187 195 189 145 94 132 167 177 189 197 197 199 202 203 202 202 204
147 157 177 165 168 167 161 154 154 163 170 172 175 180 185 189 180 169 168 167 155 150 165 170 168 134 175 201 203 103 80 155 177 184 198 196 201 203 204 205 201 207 206
97 116 173 164 162 159 156 156 159 166 167 157 160 165 178 179 170 159 152 146 139 156 173 171 144 150 204 160 93 348 338 19 151 204 204 184 199 205 201 202 193 188 201
82 82 91 161 157 160 166 164 158 149 139 130 113 101 103 109 114 121 117 118 117 119 113 133 153 165 180 161 159 168 290 313 292 264 219 186 189 189 197 198 184 170 164
58 55 56 74 103 109 126 122 108 93 83 80 79 80 72 89 90 92 101 100 98 125 155 190 168 172 196 205 179 175 192 226 240 309 295 66 130 142 192 160 158 147 135
47 48 39 43 61 71 89 110 119 125 126 109 98 85 68 62 66 67 71 72 64 58 67 62 72 98 178 203 203 205 187 167 181 210 298 5 35 34 49 123 121 121 123
52 49 42 44 48 58 71 92 103 99 107 102 96 89 75 61 57 59 64 65 62 54 49 47 49 52 62 115 165 194 175 119 173 185 204 168 43 15 35 61 85 101 113
54 51 42 46 48 53 63 65 82 92 97 101 100 96 80 66 56 53 61 64 64 62 57 53 54 56 56 60 55 49 50 62 50 173 185 149 119 24 36 43 63 84 104